FW7853 Weather Reports


time (UTC)temp
C
wind
direction
speed
KPH
gust
KPH
rain 1hr
cm
rain 24hr
cm
rain mn
cm
humidity
%
barometer
mb
20260906191640 22 246 1.6 3.2 0.00 0.00 0.00 77 1019.0
20260906191140 22 115 0.0 1.6 0.00 0.00 0.00 80 1019.1
20260906190634 22 231 0.0 0.0 0.00 0.00 0.00 82 1019.1
20260906190129 22 6 1.6 1.6 0.00 0.00 0.00 80 1019.1
20260906185628 22 237 0.0 0.0 0.00 0.00 0.00 79 1019.3
20260906185127 22 205 0.0 1.6 0.00 0.00 0.00 80 1019.2
20260906184622 22 192 1.6 3.2 0.00 0.00 0.00 80 1019.4
20260906184118 22 229 1.6 1.6 0.00 0.00 0.00 81 1019.4
20260906183614 22 355 1.6 1.6 0.00 0.00 0.00 82 1019.6
20260906183109 22 132 0.0 1.6 0.00 0.00 0.00 85 1019.5
20260906182604 22 157 0.0 0.0 0.00 0.00 0.00 85 1019.3
20260906182100 22 132 0.0 1.6 0.00 0.00 0.00 83 1019.5
20260906181555 22 169 0.0 1.6 0.00 0.00 0.00 82 1019.4
20260906181051 22 168 1.6 1.6 0.00 0.00 0.00 82 1019.4
20260906180551 22 82 1.6 1.6 0.00 0.00 0.00 82 1019.4
20260906180050 22 60 1.6 1.6 0.00 0.00 0.00 81 1019.4
20260906175549 22 131 1.6 1.6 0.00 0.00 0.00 81 1019.6
20260906175044 22 68 0.0 1.6 0.00 0.00 0.00 81 1019.3
20260906174542 22 200 1.6 1.6 0.00 0.00 0.00 82 1019.4
20260906174037 23 145 1.6 3.2 0.00 0.00 0.00 79 1019.7
20260906173532 23 241 0.0 0.0 0.00 0.00 0.00 81 1019.7
20260906173029 22 136 1.6 1.6 0.00 0.00 0.00 81 1019.5
20260906172522 23 89 1.6 1.6 0.00 0.00 0.00 82 1019.6
20260906172018 22 143 0.0 0.0 0.00 0.00 0.00 83 1019.6
20260906171513 23 140 1.6 1.6 0.00 0.00 0.00 80 1019.6
20260906171008 22 254 0.0 1.6 0.00 0.00 0.00 80 1019.6
20260906170504 22 128 1.6 1.6 0.00 0.00 0.00 80 1019.4
20260906170002 22 209 0.0 0.0 0.00 0.00 0.00 85 1019.5
20260906165500 22 194 0.0 1.6 0.00 0.00 0.00 82 1019.4
20260906164955 22 156 0.0 1.6 0.00 0.00 0.00 79 1019.5
20260906164454 22 146 0.0 0.0 0.00 0.00 0.00 82 1019.6
20260906163951 23 210 1.6 1.6 0.00 0.00 0.00 79 1019.7
20260906163446 22 195 0.0 0.0 0.00 0.00 0.00 78 1019.8
20260906162944 23 104 1.6 3.2 0.00 0.00 0.00 78 1019.8
20260906162443 22 191 0.0 0.0 0.00 0.00 0.00 78 1019.7
20260906161937 22 138 0.0 0.0 0.00 0.00 0.00 79 1019.6
20260906161432 23 171 0.0 0.0 0.00 0.00 0.00 79 1019.7
20260906160931 22 193 0.0 1.6 0.00 0.00 0.00 80 1019.7
20260906160424 22 203 0.0 0.0 0.00 0.00 0.00 78 1019.9
20260906155923 23 135 0.0 1.6 0.00 0.00 0.00 80 1019.6
20260906155422 23 160 0.0 0.0 0.00 0.00 0.00 79 1019.9
20260906154919 23 171 0.0 0.0 0.00 0.00 0.00 79 1019.8
20260906154413 23 141 0.0 0.0 0.00 0.00 0.00 77 1019.7
20260906153912 23 178 0.0 0.0 0.00 0.00 0.00 75 1019.7
20260906153410 24 186 0.0 0.0 0.00 0.00 0.00 69 1019.8
20260906152906 24 185 0.0 0.0 0.00 0.00 0.00 65 1019.9
20260906152401 24 173 1.6 1.6 0.00 0.00 0.00 63 1020.0
20260906151900 25 182 0.0 0.0 0.00 0.00 0.00 65 1020.0
20260906151355 23 181 0.0 0.0 0.00 0.00 0.00 66 1020.0
20260906150851 23 206 0.0 1.6 0.00 0.00 0.00 70 1020.3
20260906150346 23 171 0.0 0.0 0.00 0.00 0.00 73 1020.2
20260906145845 23 181 0.0 1.6 0.00 0.00 0.00 73 1020.2
20260906145344 23 227 0.0 0.0 0.00 0.00 0.00 72 1020.0
20260906144839 23 199 0.0 0.0 0.00 0.00 0.00 72 1020.0
20260906144335 22 167 0.0 0.0 0.00 0.00 0.00 76 1020.0
20260906143835 22 150 0.0 0.0 0.00 0.00 0.00 75 1020.4
20260906143331 22 110 0.0 0.0 0.00 0.00 0.00 76 1020.2
20260906142827 22 133 0.0 0.0 0.00 0.00 0.00 80 1020.2
20260906142321 22 153 0.0 0.0 0.00 0.00 0.00 77 1020.0
20260906141821 22 141 0.0 0.0 0.00 0.00 0.00 77 1020.4
20260906141315 22 167 0.0 0.0 0.00 0.00 0.00 76 1020.2
20260906140814 22 165 0.0 0.0 0.00 0.00 0.00 75 1020.4
20260906140309 22 158 0.0 0.0 0.00 0.00 0.00 78 1020.4
20260906135807 22 160 0.0 0.0 0.00 0.00 0.00 76 1020.0
20260906135305 22 154 0.0 0.0 0.00 0.00 0.00 78 1020.2
20260906134757 21 157 0.0 0.0 0.00 0.00 0.00 79 1020.5
20260906134252 20 166 0.0 0.0 0.00 0.00 0.00 80 1019.9
20260906133748 20 189 0.0 0.0 0.00 0.00 0.00 81 1020.2
20260906133243 19 163 0.0 0.0 0.00 0.00 0.00 87 1020.0
20260906132739 18 171 0.0 0.0 0.00 0.00 0.00 89 1020.0
20260906132234 17 168 0.0 0.0 0.00 0.00 0.00 91 1019.9
20260906131730 16 173 0.0 0.0 0.00 0.00 0.00 96 1020.0
20260906131224 15 182 0.0 0.0 0.00 0.00 0.00 99 1019.9
20260906130720 14 173 0.0 0.0 0.00 0.00 0.00 99 1019.9
20260906130215 13 238 0.0 0.0 0.00 0.00 0.00 99 1020.2
20260906125713 12 237 0.0 0.0 0.00 0.00 0.00 99 1020.2
20260906125212 12 202 0.0 0.0 0.00 0.00 0.00 99 1019.9
20260906124707 12 217 0.0 0.0 0.00 0.00 0.00 99 1020.0
20260906124203 12 217 0.0 0.0 0.00 0.00 0.00 99 1019.9
20260906123701 11 193 0.0 0.0 0.00 0.00 0.00 99 1019.9
20260906123157 11 193 0.0 0.0 0.00 0.00 0.00 99 1020.3
20260906122655 11 223 0.0 0.0 0.00 0.00 0.00 99 1020.2
20260906122151 11 226 0.0 0.0 0.00 0.00 0.00 99 1019.9
20260906121648 11 209 0.0 0.0 0.00 0.00 0.00 99 1019.9
20260906121144 11 193 0.0 0.0 0.00 0.00 0.00 99 1020.0
20260906120639 10 180 0.0 0.0 0.00 0.00 0.00 99 1020.0
20260906120136 10 178 0.0 0.0 0.00 0.00 0.00 99 1019.8
20260906115636 10 193 0.0 0.0 0.00 0.00 0.00 99 1019.9
20260906115132 10 193 0.0 0.0 0.00 0.00 0.00 99 1019.8
20260906114625 10 181 0.0 0.0 0.00 0.00 0.00 99 1019.7
20260906114121 10 187 0.0 0.0 0.00 0.00 0.00 99 1019.7
20260906113621 10 193 0.0 0.0 0.00 0.00 0.00 99 1019.7
20260906113121 10 219 0.0 0.0 0.00 0.00 0.00 99 1020.0
20260906112620 10 193 0.0 0.0 0.00 0.00 0.00 99 1019.8
20260906112117 10 200 0.0 0.0 0.00 0.00 0.00 99 1019.6
20260906111616 10 197 0.0 0.0 0.00 0.00 0.00 99 1019.3
20260906111111 10 189 0.0 0.0 0.00 0.00 0.00 99 1019.4
20260906110606 10 214 0.0 0.0 0.00 0.00 0.00 99 1019.4
20260906110100 10 193 0.0 0.0 0.00 0.00 0.00 99 1019.3
20260906105554 10 187 0.0 0.0 0.00 0.00 0.00 99 1019.4
20260906105051 10 211 0.0 0.0 0.00 0.00 0.00 99 1019.4
20260906104549 10 196 0.0 0.0 0.00 0.00 0.00 99 1019.2
20260906104044 10 189 0.0 0.0 0.00 0.00 0.00 99 1019.2
20260906103542 10 193 0.0 0.0 0.00 0.00 0.00 99 1019.3
20260906103038 10 184 0.0 0.0 0.00 0.00 0.00 99 1019.2
20260906102537 10 189 0.0 0.0 0.00 0.00 0.00 99 1019.4
20260906102032 10 210 0.0 0.0 0.00 0.00 0.00 99 1019.5
20260906101527 10 258 0.0 0.0 0.00 0.00 0.00 99 1019.4
20260906101022 10 257 0.0 0.0 0.00 0.00 0.00 99 1019.3
20260906100518 10 193 0.0 0.0 0.00 0.00 0.00 99 1019.3
20260906100012 11 180 0.0 0.0 0.00 0.00 0.00 99 1019.3
20260906095507 11 188 0.0 0.0 0.00 0.00 0.00 99 1019.3
20260906095002 11 207 0.0 0.0 0.00 0.00 0.00 99 1019.4
20260906094501 11 194 0.0 0.0 0.00 0.00 0.00 99 1019.5
20260906093957 11 193 0.0 0.0 0.00 0.00 0.00 99 1019.2
20260906093453 11 189 0.0 0.0 0.00 0.00 0.00 99 1019.4
20260906092954 11 246 0.0 0.0 0.00 0.00 0.00 99 1019.5
20260906092453 11 213 0.0 0.0 0.00 0.00 0.00 99 1019.3
20260906091949 11 196 0.0 0.0 0.00 0.00 0.00 99 1019.4
20260906091444 11 205 0.0 0.0 0.00 0.00 0.00 99 1019.3
20260906090941 11 219 0.0 0.0 0.00 0.00 0.00 99 1019.5
20260906090436 11 225 0.0 0.0 0.00 0.00 0.00 99 1019.1
20260906085935 11 215 0.0 0.0 0.00 0.00 0.00 99 1019.3
20260906085435 11 202 0.0 0.0 0.00 0.00 0.00 99 1019.4
20260906084934 11 179 0.0 0.0 0.00 0.00 0.00 99 1019.1
20260906084430 11 188 0.0 0.0 0.00 0.00 0.00 99 1019.0
20260906083928 11 210 0.0 0.0 0.00 0.00 0.00 99 1019.1
20260906083424 11 219 0.0 0.0 0.00 0.00 0.00 99 1019.0
20260906082923 11 188 0.0 0.0 0.00 0.00 0.00 99 1019.0
20260906082419 11 215 0.0 0.0 0.00 0.00 0.00 99 1019.1
20260906081914 11 206 0.0 0.0 0.00 0.00 0.00 99 1018.8
20260906081410 11 190 0.0 0.0 0.00 0.00 0.00 99 1019.0
20260906080906 11 195 0.0 0.0 0.00 0.00 0.00 99 1018.8
20260906080402 11 194 0.0 0.0 0.00 0.00 0.00 99 1018.8
20260906075901 11 199 0.0 0.0 0.00 0.00 0.00 99 1019.0
20260906075356 11 196 0.0 0.0 0.00 0.00 0.00 99 1019.0
20260906074852 11 222 0.0 0.0 0.00 0.00 0.00 99 1019.2
20260906074351 11 192 0.0 0.0 0.00 0.00 0.00 99 1018.9
20260906073850 11 214 0.0 0.0 0.00 0.00 0.00 99 1019.1
20260906073345 11 203 0.0 0.0 0.00 0.00 0.00 99 1018.9
20260906072842 11 196 0.0 0.0 0.00 0.00 0.00 99 1019.0
20260906072337 11 192 0.0 0.0 0.00 0.00 0.00 99 1018.9
20260906071833 11 203 0.0 0.0 0.00 0.00 0.00 99 1018.9
20260906071328 11 196 0.0 0.0 0.00 0.00 0.00 99 1018.9
20260906070824 11 178 0.0 0.0 0.00 0.00 0.00 99 1019.0
20260906070319 11 215 0.0 0.0 0.00 0.00 0.00 99 1019.0
20260906065814 12 207 0.0 0.0 0.00 0.00 0.00 99 1018.8
20260906065309 12 211 0.0 0.0 0.00 0.00 0.00 99 1018.6
20260906064805 12 239 0.0 0.0 0.00 0.00 0.00 99 1018.7
20260906064301 12 190 0.0 0.0 0.00 0.00 0.00 99 1018.6
20260906063755 12 190 0.0 0.0 0.00 0.00 0.00 99 1018.7
20260906063251 12 192 0.0 0.0 0.00 0.00 0.00 99 1018.7
20260906062745 12 181 0.0 0.0 0.00 0.00 0.00 99 1018.8
20260906062245 12 179 0.0 0.0 0.00 0.00 0.00 99 1018.8
20260906061741 12 182 0.0 0.0 0.00 0.00 0.00 99 1018.6
20260906061237 12 190 0.0 0.0 0.00 0.00 0.00 99 1018.7
20260906060732 12 177 0.0 0.0 0.00 0.00 0.00 99 1018.7
20260906060230 12 192 0.0 0.0 0.00 0.00 0.00 99 1018.1
20260906055725 12 190 0.0 0.0 0.00 0.00 0.00 99 1018.5
20260906055220 12 189 0.0 0.0 0.00 0.00 0.00 99 1018.1
20260906054715 12 187 0.0 0.0 0.00 0.00 0.00 99 1018.3
20260906054210 12 192 0.0 0.0 0.00 0.00 0.00 99 1018.2
20260906053707 12 202 0.0 0.0 0.00 0.00 0.00 99 1018.2
20260906053202 12 200 0.0 0.0 0.00 0.00 0.00 99 1018.3
20260906052657 12 191 0.0 0.0 0.00 0.00 0.00 99 1018.1
20260906052153 13 204 0.0 0.0 0.00 0.00 0.00 99 1018.2
20260906051650 13 204 0.0 0.0 0.00 0.00 0.00 99 1018.1
20260906051149 13 222 0.0 0.0 0.00 0.00 0.00 99 1018.3
20260906050645 13 212 0.0 0.0 0.00 0.00 0.00 99 1018.0
20260906050139 13 187 0.0 0.0 0.00 0.00 0.00 99 1018.2
20260906045638 13 233 0.0 0.0 0.00 0.00 0.00 99 1018.0
20260906045133 13 191 0.0 0.0 0.00 0.00 0.00 99 1017.9
20260906044630 13 209 0.0 0.0 0.00 0.00 0.00 99 1018.1
20260906044125 13 191 0.0 0.0 0.00 0.00 0.00 99 1018.5
20260906043621 13 193 0.0 0.0 0.00 0.00 0.00 99 1018.3
20260906043116 13 241 0.0 0.0 0.00 0.00 0.00 99 1018.2
20260906042615 13 214 0.0 0.0 0.00 0.00 0.00 99 1018.2
20260906042109 13 195 0.0 0.0 0.00 0.00 0.00 99 1017.8
20260906041606 13 196 0.0 0.0 0.00 0.00 0.00 99 1017.9
20260906041101 13 242 0.0 0.0 0.00 0.00 0.00 99 1017.9
20260906040556 13 235 0.0 0.0 0.00 0.00 0.00 99 1017.6
20260906040051 13 209 0.0 0.0 0.00 0.00 0.00 99 1017.8
20260906035547 13 182 0.0 0.0 0.00 0.00 0.00 99 1017.7
20260906035042 13 188 0.0 0.0 0.00 0.00 0.00 99 1017.8
20260906034542 13 204 0.0 0.0 0.00 0.00 0.00 99 1017.8
20260906034037 13 196 0.0 0.0 0.00 0.00 0.00 99 1017.8
20260906033532 14 196 0.0 0.0 0.00 0.00 0.00 99 1017.8
20260906033028 14 182 0.0 0.0 0.00 0.00 0.00 99 1017.8
20260906032525 14 203 0.0 0.0 0.00 0.00 0.00 99 1017.8
20260906032024 14 220 0.0 0.0 0.00 0.00 0.00 99 1017.6
20260906031520 14 204 0.0 0.0 0.00 0.00 0.00 99 1017.8
20260906031016 14 232 0.0 0.0 0.00 0.00 0.00 99 1017.7
20260906030515 15 212 0.0 0.0 0.00 0.00 0.00 99 1017.7
20260906030015 15 213 0.0 0.0 0.00 0.00 0.00 99 1017.5
20260906025514 15 215 0.0 0.0 0.00 0.00 0.00 99 1017.7
20260906025012 15 211 0.0 0.0 0.00 0.00 0.00 99 1017.6
20260906024508 15 209 0.0 0.0 0.00 0.00 0.00 99 1017.5
20260906024002 15 210 0.0 0.0 0.00 0.00 0.00 99 1017.3
20260906023458 15 211 0.0 0.0 0.00 0.00 0.00 99 1017.4
20260906022953 15 193 0.0 0.0 0.00 0.00 0.00 99 1017.4
20260906022448 15 183 0.0 0.0 0.00 0.00 0.00 99 1017.4
20260906021943 15 204 0.0 0.0 0.00 0.00 0.00 99 1017.3
20260906021438 15 205 0.0 0.0 0.00 0.00 0.00 99 1017.4
20260906020933 15 213 0.0 0.0 0.00 0.00 0.00 99 1017.5
20260906020427 15 229 0.0 0.0 0.00 0.00 0.00 99 1017.7
20260906015921 15 250 0.0 0.0 0.00 0.00 0.00 99 1017.7
20260906015421 15 256 0.0 0.0 0.00 0.00 0.00 99 1017.4
20260906014921 16 256 0.0 0.0 0.00 0.00 0.00 99 1017.4
20260906014420 16 256 0.0 0.0 0.00 0.00 0.00 99 1017.4
20260906013916 16 256 0.0 0.0 0.00 0.00 0.00 99 1017.4
20260906013412 16 256 0.0 0.0 0.00 0.00 0.00 99 1017.2
20260906012907 16 256 0.0 0.0 0.00 0.00 0.00 99 1017.4
20260906012402 16 258 0.0 0.0 0.00 0.00 0.00 99 1017.4
20260906011901 16 258 0.0 0.0 0.00 0.00 0.00 99 1017.3
20260906011356 16 258 0.0 0.0 0.00 0.00 0.00 99 1017.3
20260906010852 16 256 0.0 0.0 0.00 0.00 0.00 99 1017.2
20260906010348 16 256 0.0 0.0 0.00 0.00 0.00 99 1017.3
20260906005843 17 256 0.0 0.0 0.00 0.00 0.00 99 1017.3
20260906005343 17 278 0.0 0.0 0.00 0.00 0.00 99 1017.5
20260906004841 17 260 0.0 0.0 0.00 0.00 0.00 99 1017.4
20260906004342 17 258 0.0 0.0 0.00 0.00 0.00 99 1017.2
20260906003837 17 272 0.0 0.0 0.00 0.00 0.00 99 1017.7
20260906003332 17 134 0.0 0.0 0.00 0.00 0.00 99 1017.3
20260906002827 17 126 0.0 0.0 0.00 0.00 0.00 99 1017.3
20260906002326 18 144 0.0 0.0 0.00 0.00 0.00 99 1017.3
20260906001823 18 116 0.0 0.0 0.00 0.00 0.00 99 1017.5
20260906001318 18 177 0.0 0.0 0.00 0.00 0.00 99 1017.3
20260906000813 18 171 0.0 0.0 0.00 0.00 0.00 99 1017.4
20260906000307 18 167 0.0 0.0 0.00 0.00 0.00 99 1017.4
20260905235802 18 147 0.0 0.0 0.00 0.00 0.00 99 1017.3
20260905235306 18 169 0.0 0.0 0.00 0.00 0.00 98 1017.5
20260905234758 19 158 0.0 0.0 0.00 0.00 0.00 98 1017.4
20260905234253 19 138 0.0 0.0 0.00 0.00 0.00 98 1017.1
20260905233748 19 76 0.0 0.0 0.00 0.00 0.00 98 1017.4
20260905233248 19 93 0.0 0.0 0.00 0.00 0.00 97 1017.5
20260905232747 19 95 1.6 1.6 0.00 0.00 0.00 97 1017.5
20260905232243 19 105 0.0 0.0 0.00 0.00 0.00 97 1017.5
20260905231739 20 126 0.0 1.6 0.00 0.00 0.00 96 1017.4
20260905231234 20 82 0.0 0.0 0.00 0.00 0.00 96 1017.7
20260905230730 20 96 1.6 1.6 0.00 0.00 0.00 96 1017.4
20260905230228 20 74 0.0 0.0 0.00 0.00 0.00 96 1017.4
20260905225728 20 93 0.0 0.0 0.00 0.00 0.00 96 1017.4
20260905225223 20 112 0.0 1.6 0.00 0.00 0.00 96 1017.3
20260905224722 20 115 0.0 0.0 0.00 0.00 0.00 96 1017.2
20260905224217 20 95 0.0 0.0 0.00 0.00 0.00 96 1017.4
20260905223714 20 105 0.0 0.0 0.00 0.00 0.00 96 1017.3
20260905223210 20 134 1.6 1.6 0.00 0.00 0.00 96 1017.3
20260905222706 20 61 0.0 0.0 0.00 0.00 0.00 96 1017.2
20260905222205 20 196 1.6 1.6 0.00 0.00 0.00 95 1017.6
20260905221701 20 64 0.0 1.6 0.00 0.00 0.00 95 1017.5
20260905221158 20 99 0.0 0.0 0.00 0.00 0.00 95 1017.2
20260905220653 20 66 0.0 1.6 0.00 0.00 0.00 95 1017.3
20260905220149 20 44 0.0 1.6 0.00 0.00 0.00 95 1017.3
20260905215648 20 70 0.0 0.0 0.00 0.00 0.00 95 1017.2
20260905215144 20 50 1.6 1.6 0.00 0.00 0.00 95 1017.2
20260905214640 20 58 1.6 1.6 0.00 0.00 0.00 95 1017.3
20260905214135 20 66 0.0 0.0 0.00 0.00 0.00 95 1017.4
20260905213630 20 100 1.6 1.6 0.00 0.00 0.00 96 1017.4
20260905213125 20 213 0.0 0.0 0.00 0.00 0.00 96 1017.2
20260905212621 20 120 1.6 1.6 0.00 0.00 0.00 95 1017.0
20260905212120 20 135 1.6 1.6 0.00 0.00 0.00 96 1017.3
20260905211615 20 47 0.0 0.0 0.00 0.00 0.00 95 1017.1
20260905211111 20 46 1.6 1.6 0.00 0.00 0.00 95 1017.0
20260905210607 20 86 3.2 4.8 0.00 0.00 0.00 94 1016.9
20260905205601 20 80 1.6 1.6 0.00 0.00 0.00 93 1016.8
20260905205101 20 346 0.0 0.0 0.00 0.00 0.00 94 1016.8
20260905204555 20 182 1.6 1.6 0.00 0.00 0.00 94 1017.0
20260905204050 20 64 0.0 0.0 0.00 0.00 0.00 93 1016.9
20260905203550 21 212 0.0 1.6 0.00 0.00 0.00 92 1016.9
20260905203046 21 99 0.0 1.6 0.00 0.00 0.00 91 1017.3
20260905202540 21 341 1.6 3.2 0.00 0.00 0.00 93 1017.3
20260905202030 21 115 4.8 4.8 0.00 0.00 0.00 93 1017.3
20260905201526 21 144 1.6 1.6 0.00 0.00 0.00 93 1017.1
20260905201025 21 328 0.0 1.6 0.00 0.00 0.00 93 1017.3
20260905200521 21 268 0.0 1.6 0.00 0.00 0.00 92 1017.3
20260905200020 21 139 0.0 1.6 0.00 0.00 0.00 92 1017.3
20260905195514 21 236 3.2 3.2 0.00 0.00 0.00 91 1017.1
20260905195010 21 92 0.0 0.0 0.00 0.00 0.00 92 1017.2
20260905194504 21 39 0.0 0.0 0.00 0.00 0.00 91 1017.4
20260905194003 21 79 0.0 0.0 0.00 0.00 0.00 91 1017.4
20260905193458 21 226 0.0 1.6 0.00 0.00 0.00 91 1017.4
20260905192953 21 348 3.2 4.8 0.00 0.00 0.00 91 1017.0
20260905192448 21 48 1.6 3.2 0.00 0.00 0.00 90 1017.6
20260905191944 21 162 3.2 3.2 0.00 0.00 0.00 91 1017.4